Theta_e
297 297 296 296 295 294 293 292 292 292 291 292 293 292 291 288 287 286 286 286 285 283 282 282 282 282 281 280 281 281 281 281 279 281 285 285 285 285 285 286 287 287 291
294 294 295 295 294 292 291 291 291 292 292 290 291 291 288 287 286 285 284 284 282 281 281 281 280 282 279 279 279 279 279 280 280 278 280 281 282 284 284 283 287 288 286
291 291 291 292 292 292 290 290 290 289 289 290 291 289 286 287 286 285 283 282 281 281 281 280 280 279 278 277 278 278 279 281 280 279 279 280 280 281 281 282 283 283 285
289 289 290 291 291 290 290 289 289 289 290 289 291 288 287 287 285 283 282 281 280 281 281 280 280 279 277 277 278 278 280 280 280 280 279 279 280 280 280 279 279 280 280
288 289 291 291 291 291 291 290 290 291 291 291 287 287 286 284 283 282 282 281 280 279 280 280 280 280 282 281 279 278 278 278 280 279 279 280 279 277 277 278 278 277 278
288 290 291 291 291 291 291 290 290 290 289 287 288 283 282 284 286 286 285 281 281 280 278 279 279 280 280 281 281 281 280 278 278 278 278 278 278 277 277 277 276 275 274
287 290 290 290 290 289 289 289 288 287 289 285 282 282 281 282 286 286 284 281 279 278 277 277 277 279 279 278 279 280 281 281 281 279 277 277 278 279 277 276 275 275 275
287 288 289 288 288 288 288 287 286 286 284 281 281 281 281 282 283 283 281 277 276 277 276 276 276 277 278 279 279 278 279 279 280 280 280 279 279 280 279 279 278 277 278
288 287 288 288 288 287 286 286 285 283 282 281 282 280 278 277 281 281 280 276 276 276 277 276 277 277 279 281 279 278 278 279 281 281 281 282 283 283 283 280 279 278 277
287 288 288 288 286 285 284 284 282 282 283 281 280 279 280 276 279 280 279 274 270 275 276 276 278 278 280 280 279 277 276 277 278 278 277 279 280 279 281 279 276 275 276
287 287 287 285 284 284 282 281 281 281 280 278 277 277 278 277 276 279 279 273 274 275 275 275 276 279 279 280 279 278 278 279 279 279 278 277 277 278 278 279 278 277 275
286 286 285 284 284 283 280 280 280 279 278 276 266 271 274 275 277 278 279 279 278 275 274 275 276 278 278 278 278 279 279 278 277 276 277 277 277 278 280 281 281 281 280
285 284 283 283 283 282 279 278 278 277 274 274 275 270 272 275 273 277 278 278 278 272 274 276 277 276 276 276 277 277 276 276 275 274 275 276 278 280 281 281 282 282 283
284 284 284 283 282 281 280 280 278 274 273 276 273 272 270 271 271 272 275 271 276 274 272 271 272 274 273 273 273 274 275 275 275 274 275 277 278 279 279 281 280 280 280
284 285 283 282 281 281 279 279 279 278 277 274 272 271 262 262 270 278 276 272 268 271 266 265 268 270 270 271 271 271 272 273 273 273 273 274 276 277 278 280 280 280 277
284 284 283 282 280 280 278 279 282 281 281 282 282 271 267 274 278 279 278 277 276 274 267 262 260 263 267 270 269 269 270 270 271 272 272 273 273 275 276 277 277 276 276
284 284 281 282 280 277 277 276 273 277 281 282 282 281 280 278 279 278 277 276 275 272 262 261 258 260 265 269 269 269 268 268 269 270 270 270 271 273 274 274 274 275 275
284 282 283 281 281 281 278 274 272 272 268 269 277 280 281 280 278 278 277 273 266 266 264 261 260 261 263 268 269 267 267 265 265 265 267 268 268 270 271 273 273 270 271
284 283 282 280 277 276 275 271 273 275 274 270 269 272 272 279 278 277 275 263 262 262 263 264 260 263 262 263 261 264 262 263 261 261 264 266 266 268 270 271 270 270 270
285 283 280 279 277 278 277 275 275 274 274 272 268 267 265 266 262 260 258 256 256 261 261 263 264 262 260 260 257 257 262 262 263 263 261 262 263 266 268 269 269 265 267
284 283 280 279 277 275 273 273 276 274 277 275 269 265 267 267 265 262 263 261 262 262 261 262 260 258 258 258 261 257 258 258 262 262 262 263 261 262 266 266 266 266 267
283 282 280 280 279 272 272 275 276 274 274 270 272 268 266 260 263 264 264 265 263 263 263 261 262 262 261 262 260 255 256 256 259 262 261 262 263 263 263 263 262 261 264
282 281 277 274 272 270 267 271 273 273 274 272 273 271 264 265 268 267 266 266 262 261 262 260 259 261 259 257 255 259 258 258 258 261 262 262 263 263 260 259 261 261 261
282 278 275 272 265 267 266 269 269 271 275 277 276 269 267 267 266 266 265 264 260 260 257 260 261 262 261 257 255 257 261 258 258 260 261 262 263 264 262 262 261 259 258
281 278 273 273 275 275 271 269 270 271 276 278 275 272 271 267 266 266 265 264 262 259 261 260 260 262 262 261 260 260 259 261 258 259 259 262 262 261 262 263 261 262 260
283 280 280 280 278 277 275 274 275 274 275 275 276 276 273 270 269 268 266 263 262 262 262 259 260 262 261 260 261 261 260 260 258 259 258 261 262 262 261 261 262 261 262
Wind_Speed
5 5 5 5 6 6 5 5 3 3 2 2 5 6 6 6 4 4 5 5 3 2 3 4 6 5 4 4 4 4 6 5 9 6 4 4 4 3 5 4 5 5 4
3 5 6 6 6 6 4 2 4 7 6 6 5 5 6 6 5 5 4 2 1 2 4 6 7 6 6 5 5 8 7 8 8 12 5 4 5 4 3 5 3 4 5
2 2 3 5 5 4 4 5 6 7 5 5 5 6 6 6 5 2 2 1 2 4 5 6 7 6 6 6 8 8 7 8 7 9 9 4 4 3 3 3 3 2 4
1 2 3 3 4 5 6 6 6 5 6 6 6 7 5 5 1 2 1 3 5 5 6 6 6 7 8 9 9 9 7 7 8 6 7 5 4 5 3 3 3 1 3
2 2 4 5 5 6 6 6 6 5 5 6 5 5 4 1 1 1 3 5 5 6 7 7 7 10 20 16 9 8 8 7 8 5 6 4 4 2 3 2 2 2 3
4 5 5 5 5 5 6 6 6 5 5 4 5 4 2 2 2 5 7 5 5 7 8 8 8 14 13 19 20 21 16 10 8 6 6 7 6 3 2 3 2 1 2
6 6 5 6 5 6 6 5 6 4 2 4 3 4 4 4 9 8 9 4 6 6 8 9 10 8 15 11 16 20 18 18 11 8 9 8 7 5 3 3 4 3 4
5 5 6 5 6 6 6 6 5 3 2 4 3 4 4 4 9 8 6 4 5 6 9 10 10 11 10 14 12 11 9 8 7 6 7 8 8 7 6 5 4 3 3
5 5 6 6 6 6 6 6 4 2 3 3 3 4 5 4 10 10 8 3 6 8 9 9 10 10 16 21 11 11 9 9 9 14 15 16 11 8 9 4 5 6 6
5 6 6 6 5 6 6 5 2 4 4 3 3 4 4 3 8 10 10 2 4 6 7 9 14 14 20 19 9 9 8 9 8 7 5 7 7 7 12 5 3 5 5
6 6 5 4 5 5 3 2 2 4 4 3 3 2 2 3 4 10 13 2 4 5 6 7 7 18 18 17 15 8 10 9 7 7 4 4 4 5 5 5 6 6 6
6 6 4 4 3 3 2 2 4 4 4 2 1 2 2 3 6 7 12 13 13 4 6 7 7 18 16 16 12 17 16 9 5 5 4 3 3 4 4 4 6 7 8
7 6 3 3 4 3 0 3 2 3 2 2 2 2 2 3 3 9 11 12 11 3 5 10 15 16 15 11 16 16 10 6 5 5 5 4 4 5 6 4 4 6 8
7 4 2 3 4 3 1 2 2 2 2 3 2 2 2 3 3 4 3 3 5 6 5 5 6 9 7 7 8 9 7 6 6 6 5 5 5 4 4 3 3 2 2
5 4 3 2 4 1 2 3 2 3 4 3 3 3 3 3 3 8 6 2 3 2 3 3 3 6 6 6 7 7 7 8 8 7 6 7 6 5 3 4 3 2 1
4 5 3 2 3 2 3 2 4 5 7 9 9 5 3 7 8 9 7 9 11 9 3 2 3 4 5 6 6 7 6 8 8 7 7 7 6 6 5 4 3 3 3
5 6 3 3 3 3 2 3 3 4 4 4 3 10 9 6 6 6 5 5 7 6 2 2 2 3 4 5 5 6 6 6 8 6 6 7 7 6 6 5 5 3 3
5 6 4 3 4 4 3 4 3 3 2 4 4 4 8 6 5 3 3 3 3 3 1 1 2 3 3 4 4 4 5 5 5 6 6 6 6 6 6 6 5 3 3
5 3 3 3 3 3 3 3 3 3 3 3 2 3 4 7 5 3 2 3 2 2 2 2 2 3 2 3 3 3 2 4 3 4 4 5 6 5 6 5 5 6 4
5 6 4 3 3 3 3 3 3 4 3 3 3 3 2 2 1 2 1 2 2 3 3 3 3 3 3 3 3 3 3 3 4 4 4 4 4 5 5 6 5 3 2
5 4 5 4 4 4 4 4 4 4 4 4 4 4 6 4 4 4 3 3 4 4 4 4 3 3 3 3 3 2 2 3 3 3 4 4 4 4 5 4 3 3 3
5 5 5 5 4 3 4 4 4 4 4 4 4 3 4 2 4 4 4 5 5 5 4 4 4 4 3 3 3 2 2 3 3 2 3 4 4 4 4 3 3 2 2
7 6 4 3 4 4 3 4 4 4 5 5 5 4 3 4 4 5 5 5 4 4 4 4 4 4 3 3 3 4 3 3 3 2 3 3 4 4 3 2 3 3 3
6 5 5 4 3 3 4 5 5 6 6 6 6 4 4 4 5 6 5 4 4 4 3 4 4 6 4 4 3 3 3 3 2 3 3 3 3 4 3 3 2 2 3
5 4 4 5 6 6 5 5 6 6 6 7 6 5 4 5 4 5 5 4 4 3 5 5 4 6 7 7 5 5 4 3 3 4 2 3 3 4 2 2 2 2 2
6 6 6 6 6 6 7 7 8 7 7 6 6 7 6 5 5 5 5 4 4 5 5 3 5 8 8 5 6 6 4 3 3 4 2 2 2 2 2 2 3 1 2
Wind_Direction
318 305 319 317 311 293 273 290 332 351 321 288 247 262 261 254 238 251 253 257 222 321 333 299 298 302 290 297 287 278 274 256 270 279 270 247 244 268 305 311 318 323 302
356 5 354 322 317 313 322 303 200 204 210 215 256 270 264 254 243 247 264 205 268 322 296 292 282 299 294 279 278 284 277 275 267 275 265 251 234 243 249 290 307 348 334
17 353 342 344 351 336 262 226 220 218 220 272 296 283 260 267 274 252 191 59 313 288 270 277 282 290 291 290 286 284 277 275 274 273 272 252 248 256 267 271 285 328 341
342 21 5 319 288 262 249 252 251 249 272 271 289 282 291 293 239 103 44 290 286 283 284 281 281 281 281 285 283 284 289 299 276 262 270 256 233 252 238 242 291 314 319
316 292 284 266 257 266 282 289 272 261 288 273 292 309 338 161 145 214 287 286 285 285 284 284 282 287 298 302 299 293 289 281 290 286 282 256 239 242 219 219 230 275 288
276 249 268 269 272 292 291 286 275 280 295 309 319 49 57 37 242 306 313 292 298 299 300 301 293 299 295 305 303 297 293 288 284 280 278 278 253 246 228 215 212 239 301
266 259 287 289 283 291 284 294 300 298 317 318 81 96 52 12 3 347 351 352 326 312 306 303 304 308 311 297 295 293 286 286 279 275 267 257 260 254 237 243 220 209 220
281 285 274 284 285 284 295 289 284 267 291 143 111 66 58 37 11 354 4 345 313 300 306 305 305 303 300 306 305 306 293 276 279 279 267 256 249 250 228 233 223 225 247
260 273 286 283 285 302 295 288 275 320 106 98 81 71 71 16 349 346 343 291 307 312 309 315 311 320 310 314 322 312 287 280 284 289 291 292 305 297 252 215 230 245 256
286 286 286 299 298 299 300 286 133 138 147 132 97 99 71 16 351 349 347 289 297 312 320 320 320 322 326 327 322 303 285 294 294 284 281 286 294 276 272 250 209 246 260
281 280 300 302 308 306 299 303 121 111 114 105 105 113 84 6 318 354 354 300 300 321 324 323 319 324 340 346 353 337 353 340 316 296 277 277 271 261 250 235 216 216 232
291 286 277 306 317 341 350 94 116 130 137 178 99 297 273 279 329 338 350 344 342 329 323 314 309 338 346 349 348 352 354 340 335 336 315 301 292 276 264 239 228 220 227
294 273 275 311 322 335 176 162 140 146 164 224 224 223 259 266 297 332 331 344 355 347 319 333 344 344 348 344 350 358 349 340 333 332 325 317 311 306 305 284 252 241 241
305 281 301 306 306 308 307 170 163 170 220 240 236 237 255 295 296 301 287 315 347 347 337 331 330 338 333 339 345 353 349 340 343 340 326 315 302 307 306 291 269 253 233
310 287 264 269 279 311 148 176 189 229 202 209 228 199 178 286 272 316 357 347 326 341 348 347 340 348 345 351 349 350 351 355 354 347 343 340 335 334 329 336 329 351 23
292 299 251 215 249 223 203 226 261 251 249 253 236 179 232 235 286 341 1 5 0 10 16 350 327 335 340 347 349 345 353 354 347 342 345 347 344 341 349 347 346 3 14
288 289 226 237 225 208 218 212 227 309 320 295 304 221 218 230 307 341 5 11 10 21 30 327 319 316 319 341 348 347 346 342 333 341 346 345 345 344 353 357 354 349 351
271 255 244 228 230 220 217 226 225 173 243 288 307 295 227 229 293 313 330 40 354 349 289 277 292 303 309 334 347 344 342 339 341 338 346 347 349 345 351 360 3 347 333
267 256 234 237 238 208 219 222 222 216 218 239 297 315 251 238 293 311 48 146 201 265 264 287 262 283 298 306 309 322 307 328 316 325 340 345 345 344 352 351 357 349 348
266 257 237 219 202 211 219 225 229 222 230 241 249 237 270 69 334 284 265 198 212 240 251 252 269 268 275 285 301 316 317 336 344 343 334 328 334 334 346 344 346 338 318
266 247 221 210 211 217 212 220 227 223 225 236 240 230 205 189 229 219 233 224 229 234 238 236 249 250 253 259 283 317 322 308 319 322 328 326 325 332 335 321 312 317 314
270 243 214 216 225 226 232 228 222 223 228 238 249 254 211 197 222 234 238 239 230 225 218 211 232 228 230 231 243 244 285 296 300 304 314 316 318 320 325 317 325 319 322
269 244 213 230 219 224 238 242 244 234 233 231 238 242 218 227 227 232 236 241 228 230 225 202 220 249 240 232 218 209 217 263 263 275 300 310 313 319 322 310 317 331 353
262 240 223 227 220 229 226 238 241 232 235 237 231 228 233 231 232 235 236 238 232 236 216 216 216 224 235 242 239 230 226 253 252 269 278 283 296 315 318 317 322 316 318
255 232 218 230 237 237 235 236 238 239 239 236 227 214 223 233 228 233 235 230 232 226 233 211 216 225 231 235 241 226 230 280 280 286 275 268 273 302 301 289 310 317 340
267 241 231 232 232 235 235 241 242 234 239 229 227 217 211 214 222 225 232 222 229 231 232 220 225 226 229 230 229 212 227 260 296 305 302 291 288 306 316 301 336 335 321